Tracking 29892 objects as of 21-Nov-2024
HD Live streaming from Space Station
objects crossing your sky now

NOAA 16 DEB

Track NOAA 16 DEB now!
10-day predictions


NORAD ID: 41199
Int'l Code: 2000-055DC
Perigee: 825.3 km
Apogee: 917.3 km
Inclination: 98.8 °
Period: 102.2 minutes
Semi major axis: 7242 km
RCS: Unknown
Launch date: September 21, 2000
Source: United States (US)
Launch site: AIR FORCE WESTERN TEST RANGE (AFWTR)

Note: This is SATELLITE DEBRIS
Your satellite tracking list
Your tracking list is empty




NASA's NSSDC Master Catalog

Two Line Element Set (TLE):
1 41199U 00055DC  24321.27667461  .00005653  00000-0  32508-2 0  9994
2 41199  98.7721 339.6485 0063538 167.3242 192.9544 14.08592056457648
Source of the keplerian elements: AFSPC